Price, UT

8:31 PM MDT on April 25, 2017 (GMT -0600)
Carbon County

Weather History for KPUC - September, 2012

Change the Weather History Date:

Thursday, September 20, 2012

  Actual Average Record
Temperature  
Mean Temperature 66 °F -  
Max Temperature 84 °F 71 °F 88 °F (2014)
Min Temperature 50 °F 44 °F 31 °F (1978)
Cooling Degree Days 1    
Growing Degree Days 16 (Base 50)    
Moisture  
Dew Point 15 °F    
Average Humidity 15    
Maximum Humidity 28    
Minimum Humidity 6    
Precipitation  
Precipitation 0.00 in - - ()
Sea Level Pressure  
Sea Level Pressure 30.05 in    
Wind  
Wind Speed 6 mph (North)    
Max Wind Speed 12 mph    
Max Gust Speed 18 mph    
Visibility 10 miles    
Events      
Averages and records for this station are not official NWS values.
T = Trace of Precipitation, MM = Missing Value Source: NWS Daily Summary

Daily Weather History Graph

Daily Weather History Graph

Search for Another Location

Airport or City:

Trip Planner

Search our weather history database for the weather conditions in past years. The results will help you decide how hot, cold, wet, or windy it might be!

Date:

Astronomy

Sep. 20, 2012 Rise Set
Actual Time 7:09 AM MDT 7:22 PM MDT
Civil Twilight 6:42 AM MDT 7:49 PM MDT
Nautical Twilight 6:10 AM MDT 8:20 PM MDT
Astronomical Twilight 5:38 AM MDT 8:52 PM MDT
Moon 12:30 PM MDT (9/20) 10:28 PM MDT (9/20)
Length of Visible Light 13h 06m
Length of Day
12h 13m
Waxing Crescent, 27% of the Moon is Illuminated
Sep 20
Waxing Crescent
Sep 22
First Quarter
Sep 29
Full
Oct 8
Last Quarter
Oct 15
New

Hourly Weather History & Observations

Time (MDT) Temp. Dew Point Humidity Pressure Visibility Wind Dir Wind Speed Gust Speed Precip Events Conditions
12:53 AM 55.4 °F 17.6 °F 23% 30.25 in 10.0 mi North 9.2 mph - N/A   Clear
1:53 AM 54.0 °F 18.0 °F 24% 30.05 in 10.0 mi North 4.6 mph - N/A   Clear
2:53 AM 53.1 °F 18.0 °F 25% 30.04 in 10.0 mi North 3.5 mph - N/A   Clear
3:53 AM 51.8 °F 17.6 °F 26% 30.25 in 10.0 mi North 8.1 mph - N/A   Clear
4:53 AM 50.0 °F 18.0 °F 28% 30.06 in 10.0 mi North 4.6 mph - N/A   Clear
5:53 AM 50.0 °F 17.1 °F 27% 30.06 in 10.0 mi North 6.9 mph - N/A   Clear
6:53 AM 53.6 °F 17.6 °F 24% 30.25 in 10.0 mi ENE 3.5 mph - N/A   Clear
7:53 AM 55.0 °F 18.0 °F 23% 30.08 in 10.0 mi North 9.2 mph - N/A   Clear
8:53 AM 64.9 °F 18.0 °F 16% 30.06 in 10.0 mi Calm Calm - N/A   Clear
9:53 AM 73.0 °F 17.1 °F 12% 30.05 in 10.0 mi Variable 4.6 mph - N/A   Clear
10:53 AM 78.1 °F 15.1 °F 9% 30.02 in 10.0 mi NNW 9.2 mph - N/A   Clear
11:53 AM 80.1 °F 12.0 °F 8% 30.02 in 10.0 mi NE 11.5 mph 18.4 mph N/A   Clear
12:53 PM 82.0 °F 12.0 °F 7% 30.03 in 10.0 mi WNW 5.8 mph 17.3 mph N/A   Clear
1:53 PM 82.0 °F 10.9 °F 7% 30.02 in 10.0 mi Variable 4.6 mph - N/A   Clear
2:53 PM 82.9 °F 9.0 °F 6% 30.00 in 10.0 mi Variable 4.6 mph - N/A   Clear
3:53 PM 82.9 °F 10.0 °F 6% 29.98 in 10.0 mi Calm Calm - N/A   Clear
4:53 PM 82.9 °F 12.9 °F 7% 29.98 in 10.0 mi SSW 4.6 mph - N/A   Clear
5:53 PM 82.0 °F 12.9 °F 7% 29.99 in 10.0 mi SE 6.9 mph - N/A   Clear
6:53 PM 79.0 °F 14.0 °F 9% 29.99 in 10.0 mi WNW 11.5 mph - N/A   Clear
7:53 PM 72.0 °F 12.9 °F 10% 30.02 in 10.0 mi NNW 9.2 mph - N/A   Clear
8:53 PM 70.0 °F 12.9 °F 11% 30.01 in 10.0 mi NW 6.9 mph - N/A   Clear
9:53 PM 64.9 °F 12.9 °F 13% 30.01 in 10.0 mi NNW 3.5 mph - N/A   Clear
10:53 PM 69.1 °F 12.9 °F 11% 29.98 in 10.0 mi Calm Calm - N/A   Clear
11:53 PM 60.1 °F 15.1 °F 17% 30.02 in 10.0 mi NNE 10.4 mph - N/A   Clear